Terminal Aerodrome Forecast
Issued by NWS Duluth, MN

Home | Current Version | Previous Version | Text Only | Print | Product List | Glossary On
Versions: 1 2 3 4 5 6 7 8 9 10 11 12 13 14 15 16 17 18 19 20 21 22 23 24 25 26 27 28 29 30
000
FTUS43 KDLH 261700
TAFDLH
TAF
KDLH 261721Z 2618/2718 23006KT 1 1/2SM -SN BR OVC006
     FM262000 27006KT 4SM -SN BR OVC010
     FM262200 33008KT P6SM OVC015
     FM271500 VRB03KT P6SM SCT015=

USA.gov is the U.S. government's official web portal to all federal, state and local government web resources and services.